Weather History for Marysville, OH

Change the Weather History Date:

Tuesday, October 1, 2013

  Actual Average (KDLZ) Record (KDLZ)
Temperature  
Mean Temperature 62 °F -  
Max Temperature 76 °F 70 °F 88 °F (1937)
Min Temperature 49 °F 46 °F 31 °F (1947)
Degree Days  
Heating Degree Days 2    
Growing Degree Days 12 (Base 50)    
Moisture  
Dew Point 55 °F    
Average Humidity 77    
Maximum Humidity 96    
Minimum Humidity 46    
Precipitation  
Precipitation 0.00 in - - ()
Sea Level Pressure  
Sea Level Pressure 30.05 in    
Wind  
Wind Speed 5 mph (SW)    
Max Wind Speed 15 mph    
Max Gust Speed 18 mph    
Visibility 6 miles    
Events      
Averages and records for this station are not official NWS values.
T = Trace of Precipitation, MM = Missing Value Source: NWS Daily Summary

Daily Weather History Graph

Daily Weather History Graph

Search for Another Location

Airport:

Trip Planner

Search our weather history database for the weather conditions in past years. The results will help you decide how hot, cold, wet, or windy it might be!

Date:

Astronomy

Oct. 01, 2013 Rise Set
Actual Time 7:30 AM EDT 7:15 PM EDT
Civil Twilight 7:02 AM EDT 7:42 PM EDT
Nautical Twilight 6:31 AM EDT 8:13 PM EDT
Astronomical Twilight 5:59 AM EDT 8:45 PM EDT
Moon 4:02 AM EDT (10/1) 5:18 PM EDT (10/1)
Length of Visible Light 12h 39m
Length of Day
11h 45m
Waning Crescent, 12% of the Moon is Illuminated
Oct 1
Waning Crescent
Oct 4
New
Oct 11
First Quarter
Oct 18
Full
Oct 26
Last Quarter

Hourly Weather History & Observations

Time (EDT) Temp. Dew Point Humidity Pressure Visibility Wind Dir Wind Speed Gust Speed Precip Events Conditions
12:14 AM 55.8 °F 53.6 °F 92% 30.03 in 2.5 mi WSW 3.5 mph - N/A   Clear
12:33 AM 56.5 °F 54.7 °F 94% 30.03 in 2.5 mi SW 3.5 mph - N/A   Clear
12:53 AM 56.3 °F 54.5 °F 94% 30.02 in 2.5 mi SW 3.5 mph - N/A   Clear
1:14 AM 56.8 °F 55.0 °F 94% 30.02 in 3.0 mi SW 5.8 mph - N/A   Clear
1:33 AM 56.3 °F 54.5 °F 94% 30.02 in 2.5 mi SSW 5.8 mph - N/A   Clear
1:53 AM 56.3 °F 54.5 °F 94% 30.03 in 3.0 mi SW 5.8 mph - N/A   Clear
2:14 AM 56.5 °F 54.7 °F 94% 30.03 in 2.5 mi SW 3.5 mph - N/A   Clear
2:33 AM 55.6 °F 53.8 °F 94% 30.03 in 2.0 mi SW 4.6 mph - N/A   Clear
2:53 AM 55.8 °F 54.0 °F 94% 30.03 in 2.5 mi SW 4.6 mph - N/A   Clear
3:14 AM 55.9 °F 54.1 °F 94% 30.03 in 2.5 mi SW 3.5 mph - N/A   Clear
3:33 AM 55.4 °F 53.6 °F 94% 30.03 in 2.5 mi SW 4.6 mph - N/A   Clear
3:53 AM 55.4 °F 53.6 °F 94% 30.03 in 2.5 mi SW 4.6 mph - N/A   Clear
4:14 AM 55.2 °F 53.4 °F 94% 30.03 in 2.5 mi SW 3.5 mph - N/A   Clear
4:33 AM 54.7 °F 52.9 °F 94% 30.03 in 2.0 mi SW 3.5 mph - N/A   Clear
4:53 AM 54.1 °F 52.3 °F 94% 30.03 in 1.2 mi Calm Calm - N/A   Unknown
5:13 AM 53.4 °F 51.8 °F 94% 30.04 in 0.8 mi Calm Calm - N/A   Unknown
5:33 AM 54.7 °F 53.1 °F 94% 30.04 in 0.2 mi Calm Calm - N/A   Unknown
5:53 AM 49.6 °F 48.0 °F 94% 30.05 in 0.2 mi Calm Calm - N/A   Overcast
6:13 AM 50.7 °F 49.3 °F 95% 30.05 in 0.2 mi Calm Calm - N/A   Overcast
6:34 AM 52.0 °F 50.7 °F 95% 30.06 in 0.2 mi Calm Calm - N/A   Overcast
6:53 AM 49.5 °F 48.0 °F 95% 30.07 in 0.2 mi Calm Calm - N/A   Overcast
7:13 AM 51.1 °F 49.6 °F 95% 30.08 in 0.2 mi Calm Calm - N/A   Overcast
7:34 AM 50.2 °F 48.6 °F 94% 30.08 in 0.2 mi Calm Calm - N/A   Overcast
7:53 AM 49.8 °F 48.4 °F 95% 30.08 in 0.2 mi Calm Calm - N/A   Overcast
8:13 AM 52.0 °F 50.5 °F 95% 30.08 in 0.2 mi Calm Calm - N/A   Overcast
8:34 AM 54.7 °F 53.2 °F 95% 30.09 in 0.5 mi Calm Calm - N/A   Overcast
8:53 AM 57.4 °F 56.1 °F 96% 30.09 in 1.0 mi SW 4.6 mph - N/A   Mostly Cloudy
9:13 AM 59.2 °F 57.9 °F 96% 30.10 in 1.8 mi WSW 3.5 mph - N/A   Unknown
9:34 AM 61.2 °F 59.9 °F 96% 30.10 in 4.0 mi WSW 5.8 mph - N/A   Clear
9:53 AM 62.1 °F 60.8 °F 96% 30.10 in 5.0 mi WSW 4.6 mph - N/A   Clear
10:14 AM 63.5 °F 61.7 °F 94% 30.10 in 7.0 mi WSW 5.8 mph - N/A   Clear
10:33 AM 65.5 °F 61.7 °F 88% 30.10 in 10.0 mi SW 5.8 mph - N/A   Clear
10:53 AM 68.0 °F 61.5 °F 80% 30.10 in 10.0 mi West 6.9 mph - N/A   Scattered Clouds
11:13 AM 68.9 °F 60.6 °F 75% 30.10 in 10.0 mi West 8.1 mph - N/A   Overcast
11:33 AM 71.1 °F 59.5 °F 67% 30.10 in 10.0 mi West 6.9 mph - N/A   Overcast
11:53 AM 71.1 °F 59.2 °F 66% 30.09 in 10.0 mi WSW 8.1 mph - N/A   Overcast
12:14 PM 72.9 °F 57.9 °F 59% 30.09 in 10.0 mi WSW 11.5 mph - N/A   Overcast
12:33 PM 73.4 °F 57.0 °F 56% 30.09 in 10.0 mi WSW 12.7 mph - N/A   Mostly Cloudy
12:53 PM 71.8 °F 56.3 °F 58% 30.08 in 10.0 mi West 8.1 mph - N/A   Mostly Cloudy
1:12 PM 72.9 °F 55.9 °F 55% 30.08 in 10.0 mi West 9.2 mph - N/A   Mostly Cloudy
1:33 PM 75.4 °F 54.7 °F 48% 30.07 in 10.0 mi SW 10.4 mph 18.4 mph N/A   Mostly Cloudy
1:54 PM 75.6 °F 56.3 °F 51% 30.06 in 10.0 mi West 8.1 mph - N/A   Mostly Cloudy
2:13 PM 75.6 °F 54.7 °F 48% 30.06 in 10.0 mi WSW 13.8 mph 18.4 mph N/A   Mostly Cloudy
2:33 PM 75.2 °F 54.5 °F 48% 30.06 in 10.0 mi WSW 12.7 mph - N/A   Mostly Cloudy
2:54 PM 75.4 °F 55.6 °F 50% 30.05 in 10.0 mi WSW 9.2 mph - N/A   Mostly Cloudy
3:13 PM 75.9 °F 55.8 °F 49% 30.05 in 10.0 mi WSW 10.4 mph - N/A   Mostly Cloudy
3:33 PM 75.0 °F 56.1 °F 52% 30.05 in 10.0 mi WSW 10.4 mph - N/A   Overcast
3:53 PM 75.7 °F 56.1 °F 50% 30.04 in 10.0 mi West 15.0 mph - N/A   Overcast
4:13 PM 75.2 °F 55.8 °F 51% 30.04 in 10.0 mi West 11.5 mph - N/A   Mostly Cloudy
4:33 PM 75.4 °F 55.4 °F 50% 30.04 in 10.0 mi WSW 11.5 mph 17.3 mph N/A   Overcast
4:53 PM 76.6 °F 54.1 °F 46% 30.03 in 10.0 mi WSW 11.5 mph 17.3 mph N/A   Mostly Cloudy
5:13 PM 76.3 °F 54.5 °F 47% 30.03 in 10.0 mi SW 8.1 mph - N/A   Mostly Cloudy
5:33 PM 76.1 °F 54.7 °F 47% 30.03 in 10.0 mi WSW 15.0 mph 18.4 mph N/A   Mostly Cloudy
5:54 PM 75.6 °F 54.7 °F 48% 30.03 in 10.0 mi WSW 10.4 mph - N/A   Scattered Clouds
6:13 PM 74.5 °F 54.7 °F 50% 30.03 in 10.0 mi WSW 6.9 mph - N/A   Scattered Clouds
6:33 PM 73.4 °F 54.9 °F 52% 30.03 in 10.0 mi WSW 8.1 mph - N/A   Clear
6:54 PM 71.8 °F 55.6 °F 57% 30.03 in 10.0 mi WSW 6.9 mph - N/A   Clear
7:13 PM 70.0 °F 55.9 °F 61% 30.03 in 10.0 mi WSW 6.9 mph - N/A   Clear
7:33 PM 67.3 °F 55.8 °F 66% 30.03 in 10.0 mi SW 4.6 mph - N/A   Clear
7:54 PM 65.8 °F 55.9 °F 70% 30.04 in 10.0 mi SW 4.6 mph - N/A   Clear
8:13 PM 64.4 °F 55.9 °F 74% 30.04 in 10.0 mi SW 4.6 mph - N/A   Clear
8:33 PM 63.9 °F 55.9 °F 75% 30.04 in 10.0 mi SW 4.6 mph - N/A   Clear
8:52 PM 62.6 °F 55.6 °F 78% 30.04 in 10.0 mi SW 5.8 mph - N/A   Clear
9:13 PM 60.8 °F 55.4 °F 82% 30.04 in 10.0 mi SW 4.6 mph - N/A   Clear
9:33 PM 61.7 °F 56.3 °F 82% 30.05 in 10.0 mi SW 3.5 mph - N/A   Clear
9:53 PM 61.9 °F 55.9 °F 81% 30.05 in 10.0 mi SW 3.5 mph - N/A   Clear
10:13 PM 60.8 °F 55.4 °F 82% 30.05 in 10.0 mi SW 4.6 mph - N/A   Clear
10:33 PM 59.4 °F 54.7 °F 84% 30.05 in 10.0 mi SW 3.5 mph - N/A   Clear
10:53 PM 58.6 °F 54.7 °F 87% 30.05 in 10.0 mi SW 4.6 mph - N/A   Clear
11:13 PM 59.4 °F 55.4 °F 87% 30.05 in 10.0 mi SW 4.6 mph - N/A   Clear
11:33 PM 58.6 °F 54.7 °F 87% 30.05 in 7.0 mi Calm Calm - N/A   Clear
11:53 PM 57.6 °F 54.0 °F 88% 30.05 in 7.0 mi SW 5.8 mph - N/A   Clear